Location: Newark
(45.5000°N, 11.4167°E)
Time: 03:10:49
(UTC+00:00)

Vanguard 3 - Pass Details

Date: 30 August 2019
Orbit: 508 x 3262 km, 33.3° (Epoch: 21 October)

Event Time Altitude Azimuth Distance (km) Brightness Sun altitude
Rises 10:54:04 0° 197° (SSW) 7,061 12.4 53.2°
Reaches altitude 10° 11:01:49 10° 181° (S) 5,688 12.3 53.4°
Maximum altitude 11:10:19 16° 150° (SSE) 4,566 11.8 53.5°
Drops below altitude 10° 11:17:09 10° 117° (ESE) 4,447 11.3 53.5°
Sets 11:21:52 0° 98° (E) 4,931 11.2 53.5°
